[[{"header":{"parameterUnit":"m.s-1","parameterCategory":1,"la1":30.2992,"la2":30.254,"lo1":-89.0895,"lo2":-89.0443,"dy":0.0025,"dx":0.0025,"nx":19,"ny":19,"refTime":"2026-04-21T21:00:00:Z","depth":0,"parameterNumber":2,"parameterNumberName":"U-component_of_WINDS"},"data":[0,0,0,-4.6492,-4.6494,-4.6546,-4.6546,-4.6621,-4.6622,0,0,0,0,0,0,0,0,0,0,0,-4.6482,-4.6483,-4.6492,-4.6494,-4.6545,-4.6546,-4.6621,-4.6622,0,0,0,0,0,0,0,0,0,0,0,-4.6482,-4.6482,-4.6483,-4.6494,-4.6545,-4.6546,-4.6621,-4.6578,0,0,0,0,0,0,0,0,0,0,-4.6526,-4.6521,-4.6482,-4.6483,-4.6494,-4.6545,-4.6546,-4.6576,-4.6581,-4.6601,0,-4.662,0,-4.6622,-4.6627,-4.6628,0,0,0,-4.649,-4.6517,-4.6527,-4.6483,-4.6495,-4.6545,-4.6521,-4.6579,-4.6584,-4.6608,-4.6621,-4.6624,-4.6624,-4.6628,-4.6628,-4.6758,-4.6759,0,0,-4.6487,-4.6494,-4.6523,-4.6531,-4.6523,-4.6519,-4.6523,-4.6582,-4.6597,-4.6621,-4.6625,-4.6625,-4.6628,-4.6629,-4.6758,-4.6759,0,0,0,-4.6481,-4.6492,-4.65,-4.6528,-4.6537,-4.6521,-4.6525,-4.6594,-4.6597,-4.6626,-4.6626,-4.6629,-4.663,-4.6757,-4.6758,-4.6803,0,0,0,-4.6479,-4.6488,-4.6499,-4.6503,-4.6536,-4.6566,-4.6536,-4.6592,-4.6599,-4.6625,-4.6629,-4.6631,-4.6756,-4.6757,-4.68,-4.6822,0,0,0,-4.6477,-4.6488,-4.6497,-4.6504,-4.6526,-4.6565,-4.657,-4.6594,-4.6599,-4.6628,-4.6631,-4.6755,-4.6757,-4.6797,-4.6817,-4.6858,0,0,0,-4.6476,-4.6536,-4.6498,-4.6566,-4.6526,-4.6593,-4.657,-4.6619,-4.665,-4.6629,-4.6756,-4.6758,-4.6796,-4.6815,-4.6855,-4.6892,-4.6909,0,0,-4.6555,-4.6545,-4.6585,-4.6553,-4.6628,-4.6585,-4.6667,-4.6688,-4.6685,-4.6734,-4.6737,-4.6801,-4.6817,-4.6857,-4.7002,-4.7015,0,0,0,-4.6612,-4.664,-4.6659,-4.6688,-4.6707,-4.6725,-4.6733,-4.6742,-4.6784,-4.6711,-4.6827,-4.6837,-4.686,-4.6877,-4.6888,-4.6908,-4.6767,-4.6767,-4.6766,-4.6731,-4.6726,-4.6791,-4.6792,-4.6821,-4.6831,-4.6854,-4.6867,-4.6851,-4.6879,-4.6892,-4.6981,-4.7001,-4.701,-4.703,-4.6913,-4.6913,-4.6914,-4.6914,-4.6846,-4.6885,-4.6866,-4.6921,-4.6915,-4.6962,-4.6975,-4.6963,-4.7006,-4.6969,-4.699,-4.6948,-4.7024,-4.7042,-4.6917,-4.6916,-4.6916,-4.6916,-4.6915,-4.6922,-4.6939,-4.695,-4.6994,-4.7029,-4.7029,-4.7072,-4.7065,-4.7059,-4.7079,-4.7093,-4.7092,-4.709,-4.7087,-4.7087,-4.7088,-4.7088,-4.7088,-4.7088,-4.6995,-4.7006,-4.7043,-4.7071,-4.709,-4.7115,-4.7128,-4.7147,-4.7166,-4.7158,-4.7158,-4.714,-4.7034,-4.7006,-4.7093,-4.7092,-4.7092,-4.7091,-4.7091,-4.711,-4.7084,-4.714,-4.716,-4.7193,-4.7229,-4.7222,-4.7262,-4.7277,-4.7299,-4.7278,-4.7201,-4.719,-4.7181,-4.7158,-4.7279,-4.7279,-4.7279,-4.7279,-4.7172,-4.7167,-4.7225,-4.7258,-4.7289,-4.7289,-4.7355,-4.7367,-4.7375,-4.7385,-4.7367,-4.7337,-4.7328,-4.7322,-4.731,-4.7289,-4.744,-4.744,-4.7441,-4.7242,-4.7241,-4.7297,-4.7306,-4.7332,-4.7355,-4.7417,-4.7456,-4.746,-4.7447,-4.7392,-4.7385,-4.7336,-4.7321,-4.7303,-4.7285,-4.7245,0,0]},{"header":{"parameterUnit":"m.s-1","parameterCategory":1,"la1":30.2992,"la2":30.254,"lo1":-89.0895,"lo2":-89.0443,"dy":0.0025,"dx":0.0025,"nx":19,"ny":19,"refTime":"2026-04-21T21:00:00:Z","depth":0,"parameterNumber":3,"parameterNumberName":"V-component_of_WINDS"},"data":[0,0,0,4.1065,4.1066,4.1112,4.1112,4.116,4.1161,0,0,0,0,0,0,0,0,0,0,0,4.1045,4.1045,4.1065,4.1066,4.1112,4.1112,4.116,4.1161,0,0,0,0,0,0,0,0,0,0,0,4.1044,4.1045,4.1045,4.1066,4.1112,4.1112,4.116,4.1129,0,0,0,0,0,0,0,0,0,0,4.1086,4.1061,4.1045,4.1045,4.1066,4.1112,4.1112,4.1128,4.1131,4.1135,0,4.1137,0,4.1149,4.1163,4.1163,0,0,0,4.107,4.1058,4.1077,4.1045,4.1066,4.1112,4.1092,4.113,4.1133,4.1139,4.1137,4.114,4.115,4.1163,4.1164,4.1173,4.1172,0,0,4.1068,4.1049,4.1074,4.1079,4.1071,4.1091,4.1094,4.1132,4.1129,4.1138,4.1141,4.1151,4.1164,4.1164,4.1173,4.1173,0,0,0,4.1057,4.1047,4.1065,4.1077,4.1086,4.1092,4.1095,4.1127,4.1135,4.1141,4.1152,4.1164,4.1164,4.1173,4.1173,4.1147,0,0,0,4.1056,4.1041,4.1064,4.1053,4.1085,4.1107,4.1089,4.1132,4.1137,4.1151,4.1164,4.1165,4.1173,4.1173,4.1148,4.1137,0,0,0,4.1044,4.104,4.1044,4.1051,4.1071,4.1107,4.1117,4.1133,4.1143,4.1163,4.1165,4.1173,4.1173,4.1149,4.1139,4.1135,0,0,0,4.1025,4.1019,4.1044,4.1041,4.107,4.1091,4.1117,4.1133,4.1147,4.1164,4.1173,4.1173,4.1149,4.114,4.1136,4.1128,4.1123,0,0,4.1007,4.1016,4.1017,4.104,4.1052,4.1085,4.1093,4.1123,4.1142,4.1161,4.1162,4.1148,4.1139,4.1135,4.1102,4.1098,0,0,0,4.1005,4.1005,4.1012,4.1026,4.105,4.107,4.1101,4.1113,4.1131,4.1148,4.1146,4.1141,4.114,4.1137,4.1133,4.1133,4.1171,4.1171,4.1171,4.0951,4.0977,4.098,4.1012,4.1025,4.1059,4.1072,4.1094,4.1114,4.1113,4.1119,4.1096,4.1092,4.1089,4.1089,4.1117,4.1117,4.1117,4.1117,4.0928,4.0932,4.0963,4.0976,4.1003,4.1015,4.1048,4.1063,4.1077,4.1093,4.1093,4.1108,4.1084,4.1085,4.1115,4.1115,4.1116,4.1116,4.1116,4.0895,4.0902,4.0918,4.0943,4.0959,4.0991,4.1005,4.1029,4.1052,4.1052,4.1061,4.1062,4.1065,4.1055,4.1055,4.1055,4.1055,4.1054,4.1054,4.0855,4.0874,4.0883,4.0911,4.0924,4.0945,4.0981,4.0995,4.1016,4.1032,4.1033,4.1054,4.1077,4.1083,4.1053,4.1053,4.1054,4.1054,4.1054,4.0821,4.0834,4.0847,4.0861,4.0896,4.0912,4.0944,4.097,4.0985,4.0991,4.1013,4.1027,4.1037,4.104,4.1045,4.1007,4.1007,4.1007,4.1007,4.0794,4.0802,4.0823,4.0844,4.0867,4.0898,4.0913,4.0942,4.0973,4.0984,4.0994,4.1002,4.1004,4.1013,4.1017,4.1022,4.0979,4.0979,4.0979,4.0774,4.0787,4.0795,4.0828,4.0858,4.0883,4.0899,4.0921,4.0959,4.0979,4.0994,4.0995,4.1009,4.1012,4.103,4.1034,4.1044,0,0]}]]